Probability
0 0 0 0 0 0 0 0 0 0 0 0 1 2 4 3 1 0 2 4 4 1 0 0 0 0 0 0 0 0 0 0 0 0 0 0 0 0 0 0 0 0 0 0 0 0 0 0 0
0 0 0 0 0 0 0 0 0 0 0 0 0 1 2 1 0 0 1 3 2 0 0 0 0 0 0 0 0 0 0 0 0 0 0 0 0 0 0 0 0 0 0 0 0 0 0 0 0
0 0 0 0 0 1 0 0 0 0 0 0 1 2 2 1 0 0 1 2 1 0 0 0 0 0 0 0 0 0 0 0 1 1 0 0 0 0 0 0 0 0 0 0 0 0 0 0 0
0 0 0 0 0 0 0 1 1 2 1 3 7 7 3 1 0 0 0 0 1 2 1 1 1 0 0 0 0 0 1 1 2 1 0 0 0 0 0 0 0 0 0 0 0 0 0 0 0
0 0 0 0 0 0 1 2 4 5 4 7 15 15 7 1 0 0 0 1 4 7 6 3 3 2 1 0 0 0 1 2 2 2 0 0 0 0 0 0 0 0 0 0 0 0 0 0 0
0 0 0 0 0 0 1 3 7 9 8 12 21 20 10 3 0 0 1 2 8 14 10 5 4 4 2 0 0 0 1 1 2 1 0 0 0 0 0 0 0 0 0 0 0 0 0 0 0
0 0 0 0 0 1 2 6 12 15 15 17 22 21 12 5 1 0 1 4 13 18 12 4 3 3 1 0 0 0 0 0 1 1 0 0 0 0 0 0 0 0 0 0 0 0 0 0 0
0 0 0 0 0 2 4 8 15 21 24 27 29 26 18 9 3 3 4 10 19 21 13 5 3 3 2 2 1 1 0 0 0 0 0 0 0 0 1 2 3 2 0 0 0 0 0 1 1
0 0 0 0 1 2 5 8 14 21 30 44 49 42 29 16 9 9 13 21 27 25 16 11 10 9 8 7 5 3 1 1 3 3 2 2 3 3 4 5 6 4 1 1 2 3 3 3 3
0 0 0 0 1 3 6 8 11 19 35 54 60 49 32 21 15 15 21 30 34 28 21 21 23 21 20 18 14 9 7 8 10 10 9 8 9 8 9 10 9 5 3 2 4 6 7 7 6
0 0 0 0 1 2 4 8 14 26 40 49 49 37 25 21 21 25 31 39 40 33 30 32 33 35 37 33 24 17 15 16 16 16 14 13 14 13 15 15 12 9 7 6 9 11 11 11 11
0 0 0 1 2 2 3 9 24 37 40 37 32 25 21 25 32 39 46 52 51 45 41 41 41 44 47 41 29 20 17 15 16 16 14 13 14 15 17 17 13 12 12 12 15 17 16 15 15
0 0 0 1 2 3 3 11 27 36 33 27 25 25 27 34 47 57 64 68 65 59 53 48 45 42 39 32 23 15 11 9 10 10 10 8 9 11 14 16 14 11 12 13 15 17 16 16 17
0 0 0 1 2 2 3 10 23 29 26 24 27 31 35 47 62 72 76 76 72 66 57 47 38 30 23 17 12 8 5 4 4 4 4 4 3 4 8 12 13 11 10 11 11 10 10 12 12
0 0 0 0 1 1 1 9 21 25 21 24 32 39 46 59 72 78 79 74 69 62 52 39 27 19 14 10 6 4 3 2 2 2 2 1 1 1 2 6 8 8 8 9 8 6 7 8 8
0 0 0 0 0 0 2 9 18 20 19 23 32 41 53 64 72 74 71 67 62 56 48 35 21 13 10 6 4 3 2 2 2 2 2 2 1 0 0 1 2 3 4 5 5 5 6 8 8
0 0 0 0 0 0 3 7 11 12 15 22 30 39 50 60 64 62 60 57 54 50 47 36 20 9 5 3 2 1 1 1 1 2 3 2 1 0 0 0 0 0 1 2 3 3 4 5 6
0 0 0 0 0 0 2 4 5 6 11 20 28 36 44 52 54 50 47 44 42 40 38 31 18 7 2 0 0 0 0 0 1 2 2 2 1 1 1 1 0 0 0 1 1 2 2 1 1
0 0 0 0 0 0 1 2 4 5 9 16 26 33 37 42 44 40 35 32 29 27 25 20 11 4 1 0 0 0 0 0 1 2 2 1 0 1 1 1 0 0 0 0 0 1 1 0 0
0 0 0 0 0 0 0 3 6 7 9 13 20 27 29 31 32 31 26 21 17 16 15 11 6 2 0 0 1 1 0 0 1 2 2 2 1 0 1 1 1 1 1 0 0 0 0 0 0
0 0 0 0 0 0 0 3 6 7 7 8 13 18 20 21 22 20 16 11 8 7 6 5 5 5 4 2 1 1 1 1 1 2 3 3 2 1 1 2 1 1 0 0 0 0 0 0 0
0 0 0 0 0 0 0 1 4 5 4 5 7 9 10 10 11 10 7 4 3 2 2 7 12 15 15 11 5 2 3 3 3 3 3 3 3 2 2 2 1 0 0 0 0 0 0 0 0
0 0 0 0 0 0 0 0 1 2 2 2 3 3 3 3 3 3 2 2 1 0 2 11 24 31 32 24 13 7 5 4 3 3 3 3 3 2 1 1 0 0 0 0 0 0 0 0 0
0 0 0 0 0 0 0 0 0 0 0 1 1 1 1 0 0 0 0 1 1 0 3 16 33 43 40 29 19 12 7 5 3 3 2 2 1 1 0 0 0 0 0 0 0 0 0 0 0
0 0 0 1 0 0 0 0 0 0 0 0 0 0 0 0 0 0 0 1 2 2 6 19 38 46 38 25 16 11 7 4 2 1 1 1 0 0 0 0 0 0 0 0 0 0 0 0 0
0 0 0 0 0 0 0 0 1 1 1 0 0 0 0 0 0 0 0 2 4 4 8 19 36 41 30 18 12 8 4 1 1 0 0 0 0 0 0 0 0 0 0 0 0 0 0 0 0
0 0 0 0 0 0 0 0 1 2 1 0 0 0 0 0 0 0 0 1 3 5 10 21 32 32 20 11 9 5 2 0 0 0 0 0 0 0 0 0 0 0 0 0 0 0 0 0 0
0 0 0 0 0 0 0 0 1 1 1 0 0 0 0 0 0 0 0 1 2 5 11 20 25 20 10 6 5 3 0 0 0 0 0 0 0 0 0 0 0 0 0 0 0 0 0 0 0
0 0 0 0 0 0 0 0 0 0 0 0 0 0 0 0 0 0 0 0 1 4 9 14 14 10 4 2 2 1 0 0 0 0 0 0 0 0 0 0 0 0 0 0 0 0 0 0 0
0 0 0 0 0 0 0 0 0 0 0 0 0 0 0 0 0 0 0 1 2 4 6 7 7 5 2 1 1 0 0 0 0 0 0 0 0 0 1 1 1 0 0 0 0 0 0 0 0
Wind_Speed
12 13 11 9 7 4 10 9 5 7 9 12 13 16 18 15 12 12 14 22 23 20 17 16 14 13 12 11 11 10 10 10 10 10 10 9 9 9 8 7 6 6 6 6 6 6 7 6 6
12 14 11 8 8 4 5 7 1 6 8 9 13 18 18 16 14 15 16 20 22 20 16 15 15 14 12 11 11 11 11 11 10 10 9 9 8 8 7 6 5 5 5 5 5 5 5 5 5
14 17 10 9 12 6 7 6 5 7 7 8 13 15 13 12 12 13 16 20 21 19 17 16 15 14 12 11 11 10 10 10 10 9 9 8 7 7 6 5 4 4 3 4 4 3 3 4 3
9 11 10 11 17 8 7 1 3 5 6 10 15 14 10 6 12 16 17 20 21 19 17 16 15 14 12 11 10 10 10 9 9 8 7 7 6 5 4 4 3 2 2 2 2 2 2 2 2
11 9 13 15 17 7 9 4 1 4 4 7 16 15 11 9 17 17 16 19 19 19 17 16 15 13 12 10 9 9 8 8 7 7 6 5 4 3 3 2 2 1 1 1 1 1 2 2 2
10 10 14 15 13 5 7 8 2 6 7 9 17 16 9 10 14 15 15 16 18 20 18 15 15 13 11 10 9 8 7 7 6 5 4 4 3 2 2 2 2 2 1 2 2 2 2 3 4
12 13 17 21 15 8 6 4 3 2 6 6 10 14 12 12 12 13 14 15 17 19 17 14 13 12 11 10 9 8 7 6 5 4 3 3 3 4 4 4 4 4 3 3 4 4 4 5 6
12 12 19 20 17 7 2 3 3 5 6 5 7 11 15 14 10 12 14 14 15 15 14 14 13 12 11 9 9 9 8 7 6 5 4 4 5 7 7 6 6 5 5 5 5 5 6 6 7
14 13 16 18 12 4 1 1 3 4 7 7 9 14 21 18 14 13 13 14 13 12 10 11 11 10 9 10 10 10 9 7 6 5 6 5 4 3 5 4 4 5 6 6 6 6 7 7 9
11 13 18 14 10 4 3 1 3 4 6 12 18 17 19 17 15 14 13 13 12 10 10 8 7 6 6 6 6 4 5 5 3 2 2 2 1 2 2 4 5 5 7 7 8 8 8 7 6
12 16 17 14 11 8 3 4 5 4 8 11 13 11 14 16 14 13 13 12 12 10 8 9 7 7 6 5 4 2 2 2 2 3 2 2 2 2 1 1 1 3 5 4 4 5 5 4 3
11 13 13 13 11 10 8 6 3 9 14 12 10 7 10 13 12 12 12 12 12 10 9 9 10 8 8 6 3 2 2 2 2 3 5 4 2 2 2 1 1 1 1 1 1 1 3 3 3
9 10 11 11 10 8 7 4 5 13 16 15 13 10 9 10 11 12 12 13 12 10 10 10 10 7 5 4 2 3 2 2 3 3 5 5 3 3 3 2 1 2 1 1 1 2 2 3 4
9 9 10 10 11 9 7 3 5 10 13 14 13 11 9 9 12 12 12 12 11 10 10 9 8 7 4 3 1 1 2 2 4 4 5 5 4 4 4 3 2 2 1 1 1 2 3 3 3
8 8 8 9 10 10 8 1 7 6 10 13 12 10 11 10 10 11 10 11 11 10 9 8 8 7 4 3 1 2 3 4 3 3 5 5 5 4 5 4 2 2 2 1 2 2 3 3 3
9 6 6 9 12 13 8 2 7 3 3 9 10 11 10 9 9 9 10 10 11 10 8 6 8 8 5 3 2 4 4 4 2 2 4 6 4 4 4 4 3 3 3 3 2 1 2 3 3
6 0 4 8 12 10 2 3 1 9 5 7 9 10 10 8 8 7 9 10 10 8 7 6 7 6 5 4 2 3 2 2 1 2 4 4 4 4 4 4 3 4 3 3 4 4 4 4 4
6 3 6 6 8 6 2 5 7 11 9 8 9 10 9 9 9 9 8 10 9 7 7 7 6 5 4 3 1 1 1 1 1 3 4 3 3 4 4 4 5 5 4 3 3 4 3 3 4
5 3 1 4 7 3 2 6 6 8 5 6 9 9 9 9 10 9 9 10 10 7 7 6 6 5 2 1 0 0 1 1 0 3 5 2 2 3 4 3 4 4 4 4 5 4 5 4 4
6 5 3 4 5 3 2 5 6 7 6 5 8 10 10 10 10 10 9 9 9 8 7 6 6 5 4 2 1 1 1 2 1 2 3 3 2 2 4 4 4 5 4 4 3 3 3 5 5
6 6 6 5 3 1 1 2 2 1 4 5 7 10 10 11 11 11 10 10 10 9 9 8 7 6 5 3 2 2 1 2 1 1 1 3 2 2 2 2 3 4 5 4 4 4 4 4 5
5 6 6 5 3 2 3 1 4 6 6 7 8 10 11 11 11 11 11 11 10 10 10 8 7 6 5 4 3 3 2 2 1 0 1 2 1 2 1 1 2 3 4 5 5 5 5 5 4
7 6 9 11 7 5 5 2 4 8 8 9 9 10 10 12 12 12 12 11 10 10 9 9 8 6 5 4 3 3 3 2 2 3 2 1 3 3 3 2 1 2 3 3 4 4 4 4 4
7 5 9 10 6 3 10 5 5 7 9 10 11 11 11 12 12 12 11 10 8 8 8 8 9 7 6 5 4 3 2 2 3 3 3 3 3 2 2 2 1 2 3 3 4 4 5 4 4
7 4 1 1 0 7 12 3 6 7 9 10 12 13 12 12 12 12 11 10 9 8 8 8 9 8 6 6 4 3 2 2 4 4 4 2 2 2 1 2 1 2 3 4 4 4 5 5 5
8 8 5 5 2 4 6 6 9 9 8 9 11 12 12 12 12 12 12 10 9 9 8 7 8 8 6 5 4 3 2 2 3 1 2 3 3 3 2 1 2 3 4 5 4 4 5 5 4
7 8 9 7 7 3 1 9 11 9 10 8 10 12 12 12 12 12 11 10 9 8 7 7 8 7 6 5 5 4 4 3 3 3 3 4 2 3 3 3 3 4 4 5 5 4 5 5 5
7 9 7 7 5 3 4 3 7 9 9 10 9 11 11 11 12 12 11 10 9 8 7 7 8 6 5 4 4 4 5 5 5 4 4 3 4 4 4 4 5 5 5 5 5 5 6 5 5
6 7 5 6 7 5 1 1 7 8 9 10 11 11 11 11 11 11 10 9 9 9 9 8 7 6 5 4 4 2 2 3 3 4 4 5 4 4 4 5 5 5 6 6 5 6 6 6 6
9 9 6 5 5 6 3 4 4 4 7 8 8 10 10 9 8 9 10 9 8 9 9 9 8 7 7 6 5 5 4 4 4 5 4 4 4 4 5 5 5 6 6 6 6 6 7 6 6
Wind_Direction
195 215 221 237 239 242 298 303 7 67 72 62 61 74 73 60 79 95 106 107 110 115 119 115 109 108 107 106 110 117 122 124 122 121 120 119 117 115 111 108 101 94 90 85 82 77 75 72 70
210 220 228 241 242 224 267 272 241 86 83 91 85 83 81 73 84 101 107 114 116 122 126 116 112 108 107 107 108 111 116 119 121 121 121 121 121 120 117 114 109 101 97 96 92 85 85 82 79
239 239 249 248 248 230 220 222 143 111 115 105 89 75 70 85 97 108 120 123 118 117 113 116 115 111 109 107 108 110 113 115 116 118 121 123 124 124 123 122 120 115 110 109 106 102 99 98 93
237 235 243 257 270 280 262 235 114 115 112 121 105 85 78 71 110 118 130 122 117 120 119 120 120 117 114 113 114 114 115 117 119 120 123 125 127 128 130 131 130 129 126 126 131 136 129 129 132
241 254 248 261 270 285 293 303 226 141 115 105 101 102 97 93 112 127 134 121 126 122 121 126 124 123 122 121 121 120 121 122 124 128 131 134 138 142 150 155 157 162 171 178 183 177 163 179 187
243 253 263 267 270 250 271 281 256 124 111 105 107 111 101 120 125 138 129 126 123 121 122 126 128 130 130 130 129 129 131 133 136 141 146 154 161 176 195 205 213 221 237 245 237 231 214 206 211
257 274 279 281 277 259 241 294 49 31 106 98 114 115 129 132 133 133 123 119 118 121 128 138 139 138 140 142 144 145 146 148 153 161 174 191 210 219 223 222 225 230 234 241 246 246 241 228 221
258 278 282 281 280 284 292 357 350 88 80 95 133 127 138 137 143 128 124 114 112 118 128 141 145 147 155 156 160 158 160 163 171 184 199 217 233 231 228 224 219 226 232 236 243 250 246 238 229
260 265 270 278 291 300 52 49 343 87 129 93 71 111 129 142 143 135 130 119 113 114 124 133 136 147 158 157 158 166 170 175 185 194 210 228 249 251 215 214 204 226 233 236 240 246 248 243 233
246 260 267 286 319 331 71 39 258 219 116 90 84 97 126 139 144 144 135 129 125 119 112 100 109 121 127 133 140 158 160 156 179 133 178 236 301 298 311 153 194 229 238 240 240 242 245 241 237
250 262 282 300 316 314 290 244 250 241 85 83 96 124 138 142 144 139 132 131 124 114 102 101 89 71 73 85 96 84 88 100 89 77 23 19 346 327 337 99 189 228 243 245 239 235 242 246 258
261 275 286 296 305 305 301 292 48 59 89 97 118 153 149 147 139 132 127 121 113 111 102 94 81 66 55 52 54 69 73 80 71 75 38 27 350 344 357 348 321 277 254 243 261 248 252 259 259
262 275 287 291 292 286 274 263 95 92 117 136 156 164 152 144 129 114 109 111 115 112 102 93 91 85 75 59 31 64 63 65 80 69 58 22 2 8 359 335 314 292 285 284 322 298 284 274 266
316 320 311 315 315 288 266 232 110 118 141 139 147 152 153 136 122 114 114 116 117 112 107 106 106 106 105 108 90 78 100 97 75 67 58 30 13 16 350 321 313 308 342 34 328 300 289 273 262
321 311 323 321 310 301 279 259 64 112 143 141 143 142 125 113 112 115 119 121 118 114 114 122 123 117 119 114 108 84 66 67 68 79 75 46 22 7 342 313 315 3 343 331 268 285 276 265 269
317 335 329 300 294 287 292 29 46 299 164 137 134 128 118 114 117 118 120 116 118 122 129 145 128 123 119 96 48 62 49 50 51 64 74 50 11 7 337 323 1 0 330 310 306 282 315 338 331
297 156 242 271 267 265 242 110 255 259 214 154 143 136 131 129 122 118 122 119 121 127 129 118 113 121 114 105 81 95 99 75 40 75 73 42 1 13 350 333 355 336 323 327 333 16 4 337 326
276 197 196 229 266 254 115 136 192 237 219 170 150 140 141 145 141 139 134 128 129 132 130 125 125 117 123 124 119 130 130 157 137 99 91 60 12 27 352 319 10 348 329 345 357 344 325 303 286
335 347 64 239 266 281 131 148 182 221 215 161 141 138 145 151 148 146 145 141 141 143 142 144 143 135 142 138 165 36 44 343 28 110 107 75 38 18 315 349 345 329 343 346 333 339 323 309 294
343 350 324 276 259 269 135 123 165 207 203 161 145 145 151 151 147 148 155 152 156 158 157 157 155 161 175 161 158 205 252 279 263 86 125 118 68 359 336 30 336 355 336 313 328 329 316 312 322
331 299 270 264 255 346 57 125 155 189 202 164 156 153 155 161 160 159 168 167 170 171 173 176 174 173 180 181 209 250 222 257 258 78 111 89 52 333 346 343 347 346 324 340 345 334 334 323 317
298 293 302 300 297 337 307 257 223 205 214 180 176 163 163 165 167 168 175 178 180 180 181 178 170 173 174 188 231 269 279 293 331 11 76 77 289 257 271 315 342 336 319 322 329 17 339 325 317
322 344 6 10 3 349 288 224 206 189 198 187 180 170 167 167 173 174 180 185 188 186 181 173 166 170 175 193 218 249 284 322 4 18 11 341 269 232 216 198 213 310 298 323 345 327 322 315 312
322 359 28 26 20 323 252 224 164 176 182 174 170 170 170 174 176 175 182 182 188 186 180 167 163 167 174 194 218 223 261 313 322 318 302 289 279 257 190 185 136 293 303 334 322 310 301 302 311
287 295 344 351 165 246 241 207 123 138 152 159 162 169 176 177 179 178 183 183 188 192 184 172 160 164 177 193 206 211 220 256 257 253 266 275 295 307 62 49 33 297 302 295 283 285 284 286 289
272 286 288 304 259 208 217 126 121 127 132 147 156 164 173 178 182 183 186 187 188 192 184 173 155 159 175 191 190 192 207 253 269 306 349 324 305 310 349 300 262 262 267 277 288 293 286 282 281
293 302 310 303 308 339 44 113 119 132 142 153 159 163 175 184 185 185 187 185 184 183 173 163 146 157 177 190 176 184 203 233 285 320 283 269 280 296 318 321 295 280 271 266 271 271 278 283 279
279 303 314 318 327 3 33 24 137 152 158 165 172 174 182 186 188 187 182 181 173 169 153 144 143 160 177 193 199 210 191 205 217 240 271 295 294 284 281 276 282 281 276 268 260 264 267 269 266
264 273 297 315 328 334 54 155 146 160 165 174 181 182 186 192 192 184 175 167 163 158 148 149 154 165 181 201 206 231 223 235 236 233 240 248 256 268 272 270 269 271 270 268 261 260 266 267 266
301 282 275 285 317 313 339 85 95 135 157 174 181 177 181 186 188 173 162 154 159 166 163 164 169 179 186 193 193 200 212 227 242 252 250 252 256 261 268 269 270 271 273 270 271 272 274 271 270